Simultaneous Nadir Overpasses (SNOs) Predictions

Prediction of SNOs between GOES-17 and AQUA Satellite Orbit:

Table of predicted SNOs for the next 14.0 days since TLE Epoch: 2/13/2021
Index Date Time (GOES-17) GOES-17 Lat,Lon AQUA Lat,Lon Distance(km) Time Diff (sec)
1 02/13/2021 11:03:48 -0.03,-137.22 0.91,-141.61 498.78 80
2 02/14/2021 22:30:21 0.03,-137.22 0.81,-133.49 424.20 80
3 02/15/2021 10:51:37 -0.02,-137.22 0.29,-138.65 162.77 80
4 02/17/2021 10:36:46 -0.02,-137.21 -0.34,-135.69 172.75 80
5 02/17/2021 22:58:10 0.02,-137.21 -0.76,-140.88 417.22 80
6 02/19/2021 22:45:59 0.02,-137.20 -0.12,-137.93 82.48 80
7 02/21/2021 22:36:27 0.00,-137.18 0.46,-134.96 251.72 80
8 02/22/2021 10:57:43 0.00,-137.17 0.64,-140.12 335.76 80
9 02/24/2021 10:42:52 0.01,-137.13 -0.00,-137.16 3.21 80
10 02/26/2021 10:30:40 0.00,-137.10 -0.59,-134.19 329.39 80
11 02/26/2021 22:52:04 -0.00,-137.09 -0.49,-139.39 261.48 80
